Find Kosmos-2292

NORAD ID: 23278 Int'l Des: 1994-061 Owner: PVO Country: RU operational
LEOPOLAR

Aktuelle Ansicht

3D-Globus wird geladen...

Über Kosmos-2292

Beschreibung wird geladen...

Nächste Überflüge

Passes for default location (London). Set your location on the main map for personalized predictions.

Höhenverlauf

Loading altitude history...

Zweizeiliger Elementsatz

1 23278U 94061A 26151.18582590 .00005876 00000-0 48451-3 0 9996
2 23278 82.9716 285.2769 0818939 201.8194 154.6136 13.70754264555672
Epoch: 31. Mai 2026 • Age: 7 hours

Aktueller Status

Höhe 886.5 km
Geschwindigkeit 7.48 km/s
Subsatellitenpunkt -75.81°S, 158.84°W
Startdatum 27. Sept. 1994
Alter 31.6 years
Typ other

Technische Details

Klassifizierung Payload
Masse 570.00 kg
Trockenmasse 570.00 kg
Gesamtmasse 570.00 kg
Länge 2.00 m
Durchmesser 2.00 m
Spannweite 2.00 m
Form Sphere
Hersteller YUZHUA
Bus-Typ Vektor
Phasenstatus In Orbit
Besitzer/Staat PVO/RU

Most Searched